Tracking 32136 objects as of 12-Nov-2025
HD Live streaming from Space Station
objects crossing your sky now

CZ-4B DEB

Track CZ-4B DEB now!
10-day predictions


NORAD ID: 29215
Int'l Code: 2002-024F
Perigee: 847.5 km
Apogee: 1,210.0 km
Inclination: 98.8 °
Period: 105.6 minutes
Semi major axis: 7399 km
RCS: 0.0014 m2 (small)
Launch date: May 15, 2002
Source: People's Republic of China (PRC)
Launch site: Taiyaun Space Center, China (TSC)

Note: This is SATELLITE DEBRIS
Your satellite tracking list
Your tracking list is empty




NASA's NSSDC Master Catalog

Two Line Element Set (TLE):
1 29215U 02024F   25314.06818426  .00000375  00000-0  42273-3 0  9993
2 29215  98.7604 353.7727 0244981 107.8551 284.1326 13.63880235150410
Source of the keplerian elements: AFSPC